Time,TemperatureF,DewpointF,PressureIn,WindDirection,WindDirectionDegrees,WindSpeedMPH,WindSpeedGustMPH,Humidity,HourlyPrecipIn,Conditions,Clouds,dailyrainin,SoftwareType,DateUTC
2013-03-07 00:01:00,30.0,26.0,30.29,NW,315,0.0,4.0,84,0.00,,,0.00,,2013-03-07 06:01:00,
2013-03-07 00:11:00,30.0,26.0,30.29,NW,315,0.0,4.0,84,0.00,,,0.00,,2013-03-07 06:11:00,
2013-03-07 00:21:00,30.0,26.0,30.29,NW,315,0.0,4.0,84,0.00,,,0.00,,2013-03-07 06:21:00,
2013-03-07 00:32:00,30.0,26.0,30.29,NW,315,0.0,4.0,84,0.00,,,0.00,,2013-03-07 06:32:00,
2013-03-07 00:42:00,30.0,26.0,30.29,NW,315,0.0,4.0,84,0.00,,,0.00,,2013-03-07 06:42:00,
2013-03-07 01:53:00,32.0,27.0,30.29,NW,315,2.0,6.0,82,0.00,,,0.00,,2013-03-07 07:53:00,
2013-03-07 02:02:00,32.0,27.0,30.29,North,360,2.0,7.0,82,0.00,,,0.00,,2013-03-07 08:02:00,
2013-03-07 02:12:00,32.0,27.0,30.29,North,360,2.0,7.0,82,0.00,,,0.00,,2013-03-07 08:12:00,
2013-03-07 02:22:00,32.0,27.0,30.30,North,360,2.0,6.0,83,0.00,,,0.00,,2013-03-07 08:22:00,
2013-03-07 02:33:00,32.0,27.0,30.29,NE,45,3.0,6.0,82,0.00,,,0.00,,2013-03-07 08:33:00,
2013-03-07 02:43:00,32.0,27.0,30.29,NE,45,3.0,6.0,82,0.00,,,0.00,,2013-03-07 08:43:00,
2013-03-07 02:54:00,32.0,27.0,30.29,NNW,338,4.0,8.0,82,0.00,,,0.00,,2013-03-07 08:54:00,
2013-03-07 03:03:00,32.0,27.0,30.29,NE,45,2.0,6.0,82,0.00,,,0.00,,2013-03-07 09:03:00,
2013-03-07 03:13:00,32.0,27.0,30.29,NE,45,2.0,6.0,82,0.00,,,0.00,,2013-03-07 09:13:00,
2013-03-07 03:23:00,32.0,27.0,30.29,NE,45,2.0,6.0,82,0.00,,,0.00,,2013-03-07 09:23:00,
2013-03-07 03:32:00,32.0,27.0,30.29,NE,45,2.0,6.0,82,0.00,,,0.00,,2013-03-07 09:32:00,
2013-03-07 03:42:00,32.0,27.0,30.29,NE,45,2.0,6.0,82,0.00,,,0.00,,2013-03-07 09:42:00,
2013-03-07 04:24:00,31.0,26.0,30.31,North,360,0.0,7.0,82,0.00,,,0.00,,2013-03-07 10:24:00,
2013-03-07 04:33:00,31.0,26.0,30.30,NE,45,1.0,5.0,82,0.00,,,0.00,,2013-03-07 10:33:00,
2013-03-07 04:43:00,31.0,26.0,30.30,NE,45,1.0,5.0,82,0.00,,,0.00,,2013-03-07 10:43:00,
2013-03-07 04:53:00,31.0,26.0,30.30,NE,45,2.0,7.0,82,0.00,,,0.00,,2013-03-07 10:53:00,
2013-03-07 05:02:00,31.0,26.0,30.30,NE,45,2.0,7.0,82,0.00,,,0.00,,2013-03-07 11:02:00,
2013-03-07 05:12:00,31.0,26.0,30.30,NE,45,2.0,7.0,82,0.00,,,0.00,,2013-03-07 11:12:00,
2013-03-07 05:23:00,31.0,26.0,30.31,NNE,22,2.0,7.0,81,0.00,,,0.00,,2013-03-07 11:23:00,
2013-03-07 05:33:00,31.0,26.0,30.32,NE,45,1.0,4.0,81,0.00,,,0.00,,2013-03-07 11:33:00,
2013-03-07 05:44:00,31.0,26.0,30.32,NE,45,1.0,4.0,81,0.00,,,0.00,,2013-03-07 11:44:00,
2013-03-07 05:54:00,31.0,26.0,30.32,North,360,1.0,6.0,82,0.00,,,0.00,,2013-03-07 11:54:00,
2013-03-07 06:02:00,31.0,26.0,30.33,North,360,2.0,7.0,82,0.00,,,0.00,,2013-03-07 12:02:00,
2013-03-07 06:12:00,31.0,26.0,30.33,North,360,2.0,7.0,82,0.00,,,0.00,,2013-03-07 12:12:00,
2013-03-07 06:23:00,31.0,26.0,30.33,North,360,2.0,7.0,82,0.00,,,0.00,,2013-03-07 12:23:00,
2013-03-07 06:33:00,31.0,26.0,30.33,North,360,2.0,7.0,82,0.00,,,0.00,,2013-03-07 12:33:00,
2013-03-07 06:42:00,31.0,26.0,30.33,North,360,2.0,7.0,82,0.00,,,0.00,,2013-03-07 12:42:00,
2013-03-07 07:23:00,32.0,27.0,30.36,North,360,2.0,8.0,81,0.00,,,0.00,,2013-03-07 13:23:00,
2013-03-07 07:33:00,32.0,27.0,30.36,North,360,2.0,6.0,81,0.00,,,0.00,,2013-03-07 13:33:00,
2013-03-07 07:42:00,32.0,27.0,30.36,North,360,2.0,6.0,81,0.00,,,0.00,,2013-03-07 13:42:00,
2013-03-07 07:53:00,32.0,27.0,30.37,East,90,2.0,4.0,80,0.00,,,0.00,,2013-03-07 13:53:00,
2013-03-07 08:02:00,32.0,27.0,30.37,NE,45,3.0,7.0,80,0.00,,,0.00,,2013-03-07 14:02:00,
2013-03-07 08:12:00,32.0,27.0,30.37,NE,45,3.0,7.0,80,0.00,,,0.00,,2013-03-07 14:12:00,
2013-03-07 08:23:00,32.0,27.0,30.37,NE,45,3.0,5.0,80,0.00,,,0.00,,2013-03-07 14:23:00,
2013-03-07 08:32:00,33.0,28.0,30.37,NE,45,2.0,3.0,80,0.00,,,0.00,,2013-03-07 14:32:00,
2013-03-07 08:42:00,33.0,28.0,30.37,NE,45,2.0,3.0,80,0.00,,,0.00,,2013-03-07 14:42:00,
2013-03-07 08:54:00,33.0,27.0,30.36,NNW,338,2.0,8.0,79,0.00,,,0.00,,2013-03-07 14:54:00,
2013-03-07 09:02:00,33.0,28.0,30.36,NE,45,2.0,8.0,80,0.00,,,0.00,,2013-03-07 15:02:00,
2013-03-07 09:12:00,33.0,28.0,30.36,NE,45,2.0,8.0,80,0.00,,,0.00,,2013-03-07 15:12:00,
2013-03-07 09:23:00,33.0,28.0,30.36,NE,45,2.0,8.0,80,0.00,,,0.00,,2013-03-07 15:23:00,
2013-03-07 09:32:00,34.0,28.0,30.36,North,360,2.0,5.0,79,0.00,,,0.00,,2013-03-07 15:32:00,
2013-03-07 09:42:00,34.0,28.0,30.36,North,360,2.0,5.0,79,0.00,,,0.00,,2013-03-07 15:42:00,
2013-03-07 09:53:00,34.0,27.0,30.37,SE,135,2.0,8.0,75,0.00,,,0.00,,2013-03-07 15:53:00,
2013-03-07 10:02:00,35.0,28.0,30.37,East,90,3.0,6.0,76,0.00,,,0.00,,2013-03-07 16:02:00,
2013-03-07 10:12:00,35.0,28.0,30.37,East,90,3.0,6.0,76,0.00,,,0.00,,2013-03-07 16:12:00,
2013-03-07 10:23:00,35.0,28.0,30.36,NE,45,2.0,5.0,75,0.00,,,0.00,,2013-03-07 16:23:00,
2013-03-07 10:32:00,35.0,28.0,30.36,NE,45,2.0,5.0,75,0.00,,,0.00,,2013-03-07 16:32:00,
2013-03-07 10:42:00,35.0,28.0,30.36,NE,45,2.0,5.0,75,0.00,,,0.00,,2013-03-07 16:42:00,
2013-03-07 10:53:00,35.0,28.0,30.36,NE,45,2.0,5.0,75,0.00,,,0.00,,2013-03-07 16:53:00,
2013-03-07 11:02:00,36.0,28.0,30.37,NE,45,2.0,9.0,73,0.00,,,0.00,,2013-03-07 17:02:00,
2013-03-07 11:12:00,36.0,28.0,30.37,NE,45,2.0,9.0,73,0.00,,,0.00,,2013-03-07 17:12:00,
2013-03-07 11:22:00,37.0,29.0,30.37,North,360,3.0,8.0,73,0.00,,,0.00,,2013-03-07 17:22:00,
2013-03-07 11:33:00,38.0,30.0,30.37,East,90,2.0,8.0,73,0.00,,,0.00,,2013-03-07 17:33:00,
2013-03-07 11:43:00,38.0,30.0,30.37,East,90,2.0,8.0,73,0.00,,,0.00,,2013-03-07 17:43:00,
2013-03-07 11:54:00,38.0,29.0,30.36,SE,135,2.0,5.0,71,0.00,,,0.00,,2013-03-07 17:54:00,
2013-03-07 12:03:00,40.0,30.0,30.35,SE,135,2.0,7.0,68,0.00,,,0.00,,2013-03-07 18:03:00,
2013-03-07 12:12:00,40.0,30.0,30.35,SE,135,2.0,7.0,68,0.00,,,0.00,,2013-03-07 18:12:00,
2013-03-07 12:22:00,40.0,30.0,30.35,North,360,2.0,6.0,67,0.00,,,0.00,,2013-03-07 18:22:00,
2013-03-07 12:32:00,43.0,32.0,30.35,ENE,68,2.0,7.0,65,0.00,,,0.00,,2013-03-07 18:32:00,
2013-03-07 12:42:00,43.0,32.0,30.35,ENE,68,2.0,7.0,65,0.00,,,0.00,,2013-03-07 18:42:00,
2013-03-07 13:03:00,41.0,31.0,30.35,East,90,3.0,11.0,67,0.00,,,0.00,,2013-03-07 19:03:00,
2013-03-07 13:12:00,41.0,31.0,30.35,East,90,3.0,11.0,67,0.00,,,0.00,,2013-03-07 19:12:00,
2013-03-07 13:23:00,41.0,31.0,30.35,East,90,3.0,11.0,67,0.00,,,0.00,,2013-03-07 19:23:00,
2013-03-07 13:34:00,42.0,31.0,30.33,NE,45,2.0,10.0,66,0.00,,,0.00,,2013-03-07 19:34:00,
2013-03-07 13:44:00,42.0,31.0,30.33,NE,45,2.0,10.0,66,0.00,,,0.00,,2013-03-07 19:44:00,
2013-03-07 13:53:00,42.0,31.0,30.33,NE,45,2.0,10.0,66,0.00,,,0.00,,2013-03-07 19:53:00,
2013-03-07 14:02:00,42.0,31.0,30.33,NE,45,2.0,10.0,66,0.00,,,0.00,,2013-03-07 20:02:00,
2013-03-07 14:13:00,42.0,31.0,30.33,NE,45,2.0,10.0,66,0.00,,,0.00,,2013-03-07 20:13:00,
2013-03-07 14:23:00,43.0,30.0,30.32,NW,315,4.0,10.0,59,0.00,,,0.00,,2013-03-07 20:23:00,
2013-03-07 14:34:00,44.0,31.0,30.33,North,360,6.0,9.0,61,0.00,,,0.00,,2013-03-07 20:34:00,
2013-03-07 14:43:00,44.0,31.0,30.33,North,360,6.0,9.0,61,0.00,,,0.00,,2013-03-07 20:43:00,
2013-03-07 14:54:00,44.0,31.0,30.33,North,360,6.0,9.0,61,0.00,,,0.00,,2013-03-07 20:54:00,
2013-03-07 15:02:00,44.0,31.0,30.33,North,360,6.0,9.0,61,0.00,,,0.00,,2013-03-07 21:02:00,
2013-03-07 15:12:00,44.0,31.0,30.33,North,360,6.0,9.0,61,0.00,,,0.00,,2013-03-07 21:12:00,
2013-03-07 15:23:00,45.0,31.0,30.33,NE,45,3.0,8.0,58,0.00,,,0.00,,2013-03-07 21:23:00,
2013-03-07 15:33:00,45.0,31.0,30.33,NE,45,3.0,8.0,58,0.00,,,0.00,,2013-03-07 21:33:00,
2013-03-07 15:43:00,45.0,31.0,30.33,NE,45,3.0,8.0,58,0.00,,,0.00,,2013-03-07 21:43:00,
2013-03-07 15:53:00,45.0,31.0,30.33,NE,45,3.0,8.0,58,0.00,,,0.00,,2013-03-07 21:53:00,
2013-03-07 16:02:00,44.0,30.0,30.32,North,360,4.0,9.0,57,0.00,,,0.00,,2013-03-07 22:02:00,
2013-03-07 16:12:00,44.0,30.0,30.32,North,360,4.0,9.0,57,0.00,,,0.00,,2013-03-07 22:12:00,
2013-03-07 16:22:00,44.0,29.0,30.32,North,360,2.0,7.0,56,0.00,,,0.00,,2013-03-07 22:22:00,
2013-03-07 16:32:00,44.0,29.0,30.32,North,360,2.0,7.0,56,0.00,,,0.00,,2013-03-07 22:32:00,
2013-03-07 16:42:00,44.0,29.0,30.32,North,360,2.0,7.0,56,0.00,,,0.00,,2013-03-07 22:42:00,
2013-03-07 16:54:00,44.0,30.0,30.32,North,360,2.0,7.0,58,0.00,,,0.00,,2013-03-07 22:54:00,
2013-03-07 17:02:00,43.0,30.0,30.32,NNW,338,3.0,7.0,60,0.00,,,0.00,,2013-03-07 23:02:00,
2013-03-07 17:13:00,43.0,30.0,30.32,NNW,338,3.0,7.0,60,0.00,,,0.00,,2013-03-07 23:13:00,
2013-03-07 17:22:00,42.0,30.0,30.33,NW,315,4.0,8.0,61,0.00,,,0.00,,2013-03-07 23:22:00,
2013-03-07 17:33:00,42.0,30.0,30.33,NW,315,4.0,8.0,61,0.00,,,0.00,,2013-03-07 23:33:00,
2013-03-07 17:43:00,42.0,30.0,30.33,NW,315,4.0,8.0,61,0.00,,,0.00,,2013-03-07 23:43:00,
2013-03-07 17:54:00,39.0,29.0,30.34,North,360,2.0,8.0,66,0.00,,,0.00,,2013-03-07 23:54:00,
2013-03-07 18:03:00,39.0,29.0,30.34,North,360,2.0,8.0,66,0.00,,,0.00,,2013-03-08 00:03:00,
2013-03-07 18:13:00,39.0,29.0,30.34,North,360,2.0,8.0,66,0.00,,,0.00,,2013-03-08 00:13:00,
2013-03-07 18:23:00,37.0,28.0,30.33,North,360,1.0,5.0,70,0.00,,,0.00,,2013-03-08 00:23:00,
2013-03-07 18:33:00,37.0,28.0,30.33,North,360,1.0,5.0,70,0.00,,,0.00,,2013-03-08 00:33:00,
2013-03-07 18:44:00,37.0,28.0,30.33,North,360,1.0,5.0,70,0.00,,,0.00,,2013-03-08 00:44:00,
2013-03-07 18:54:00,36.0,28.0,30.34,NE,45,2.0,4.0,72,0.00,,,0.00,,2013-03-08 00:54:00,
2013-03-07 19:02:00,36.0,28.0,30.34,NE,45,2.0,4.0,72,0.00,,,0.00,,2013-03-08 01:02:00,
2013-03-07 19:11:00,36.0,28.0,30.34,NE,45,2.0,4.0,72,0.00,,,0.00,,2013-03-08 01:11:00,
2013-03-07 19:21:00,35.0,28.0,30.35,NE,45,1.0,3.0,75,0.00,,,0.00,,2013-03-08 01:21:00,
2013-03-07 19:32:00,35.0,28.0,30.35,NE,45,1.0,4.0,76,0.00,,,0.00,,2013-03-08 01:32:00,
2013-03-07 19:42:00,35.0,28.0,30.35,NE,45,1.0,4.0,76,0.00,,,0.00,,2013-03-08 01:42:00,
2013-03-07 19:52:00,34.0,27.0,30.35,North,360,0.0,3.0,76,0.00,,,0.00,,2013-03-08 01:52:00,
2013-03-07 20:01:00,34.0,28.0,30.35,NE,45,0.0,2.0,77,0.00,,,0.00,,2013-03-08 02:01:00,
2013-03-07 20:11:00,34.0,28.0,30.35,NE,45,0.0,2.0,77,0.00,,,0.00,,2013-03-08 02:11:00,
2013-03-07 20:22:00,33.0,27.0,30.35,East,90,0.0,2.0,78,0.00,,,0.00,,2013-03-08 02:22:00,
2013-03-07 20:32:00,33.0,28.0,30.34,East,90,0.0,2.0,80,0.00,,,0.00,,2013-03-08 02:32:00,
2013-03-07 20:42:00,33.0,28.0,30.34,East,90,0.0,2.0,80,0.00,,,0.00,,2013-03-08 02:42:00,
2013-03-07 20:53:00,33.0,28.0,30.34,NE,45,1.0,3.0,80,0.00,,,0.00,,2013-03-08 02:53:00,
2013-03-07 21:02:00,32.0,27.0,30.34,NE,45,2.0,4.0,81,0.00,,,0.00,,2013-03-08 03:02:00,
2013-03-07 21:12:00,32.0,27.0,30.34,NE,45,2.0,4.0,81,0.00,,,0.00,,2013-03-08 03:12:00,
2013-03-07 21:22:00,32.0,27.0,30.34,NE,45,2.0,4.0,81,0.00,,,0.00,,2013-03-08 03:22:00,
2013-03-07 21:32:00,32.0,27.0,30.34,NE,45,2.0,4.0,81,0.00,,,0.00,,2013-03-08 03:32:00,
2013-03-07 21:42:00,32.0,27.0,30.34,NE,45,2.0,4.0,81,0.00,,,0.00,,2013-03-08 03:42:00,
2013-03-07 21:53:00,32.0,27.0,30.34,NE,45,1.0,3.0,82,0.00,,,0.00,,2013-03-08 03:53:00,
2013-03-07 22:01:00,31.0,26.0,30.34,East,90,1.0,3.0,83,0.00,,,0.00,,2013-03-08 04:01:00,
2013-03-07 22:11:00,31.0,26.0,30.34,East,90,1.0,3.0,83,0.00,,,0.00,,2013-03-08 04:11:00,
2013-03-07 22:22:00,31.0,27.0,30.34,NE,45,1.0,4.0,84,0.00,,,0.00,,2013-03-08 04:22:00,
2013-03-07 22:32:00,31.0,27.0,30.34,NE,45,1.0,4.0,84,0.00,,,0.00,,2013-03-08 04:32:00,
2013-03-07 22:42:00,31.0,27.0,30.34,NE,45,1.0,4.0,84,0.00,,,0.00,,2013-03-08 04:42:00,
2013-03-07 22:52:00,31.0,27.0,30.33,NE,45,1.0,4.0,84,0.00,,,0.00,,2013-03-08 04:52:00,
2013-03-07 23:02:00,31.0,27.0,30.33,NE,45,1.0,3.0,85,0.00,,,0.00,,2013-03-08 05:02:00,
2013-03-07 23:12:00,31.0,27.0,30.33,NE,45,1.0,3.0,85,0.00,,,0.00,,2013-03-08 05:12:00,
2013-03-07 23:22:00,31.0,27.0,30.33,East,90,0.0,3.0,85,0.00,,,0.00,,2013-03-08 05:22:00,
2013-03-07 23:32:00,31.0,27.0,30.33,North,360,1.0,3.0,84,0.00,,,0.00,,2013-03-08 05:32:00,
2013-03-07 23:42:00,31.0,27.0,30.33,North,360,1.0,3.0,84,0.00,,,0.00,,2013-03-08 05:42:00,
2013-03-07 23:52:00,30.0,26.0,30.33,East,90,0.0,2.0,85,0.00,,,0.00,,2013-03-08 05:52:00,